Regional Weather Roundup
Issued by NWS

Home | Current Version | Previous Version | Graphics & Text | Print | Product List | Glossary On
Versions: 1 2 3 4 5 6 7 8 9 10 11 12 13 14 15 16 17 18 19 20 21 22 23 24 25 26 27 28 29 30 31 32 33 34 35 36 37 38 39 40 41 42 43 44 45 46 47 48 49 50
547
ASUS43 KIND 061159
RWRIN

WEATHER ROUNDUP FOR INDIANA
NATIONAL WEATHER SERVICE INDIANAPOLIS IN
800 AM EDT FRI MAY 06 2016

NOTE: "FAIR" INDICATES FEW OR NO CLOUDS BELOW 12,000 FEET WITH NO
SIGNIFICANT WEATHER AND/OR OBSTRUCTIONS TO VISIBILITY.

* - STATION DOES NOT REPORT WEATHER SUCH AS PRECIPITATION OR FOG.

+ - STATION NOT QUALITY CONTROLLED BY THE NATIONAL WEATHER SERVICE.
    USE DATA WITH CAUTION...ESPECIALLY DEWPOINT AND RELATIVE
    HUMIDITY OBSERVATIONS.

INZ001>003-010>013-019-020-061300-
NORTHWEST INDIANA

CITY           SKY/WX    TMP DP  RH WIND       PRES   REMARKS
GARY /AIRPORT/ PTSUNNY   45  45 100 CALM      30.01R
RENSSELAER +   SUNNY     43  43 100 CALM      30.01R

$$

LMZ046-743>745-061300-
SOUTHERN LAKE MICHIGAN

STATION/POSITION TIME  TEMP    WIND        PRES    WAVE
                       AIR SEA DIR/SP/G            HT
                 (UTC) (F)     (DEG/KT/KT) (MB)    (FT)
BURNS HARBOR     1102   44     190/  6/  7 1015.9S

$$

INZ004-005-014>016-021>024-061300-
NORTH CENTRAL INDIANA

CITY           SKY/WX    TMP DP  RH WIND       PRES   REMARKS
ELKHART        SUNNY     41  41 100 CALM      30.00R
GOSHEN         MOSUNNY   43  40  89 CALM      29.99R
6HR MIN TEMP:  38; 6HR MAX TEMP:  45;

SOUTH BEND     SUNNY     40  38  93 CALM      30.00R
6HR MIN TEMP:  34; 6HR MAX TEMP:  41;


$$

INZ006>009-017-018-025>027-061300-
NORTHEAST INDIANA

CITY           SKY/WX    TMP DP  RH WIND       PRES   REMARKS
ANGOLA *+        N/A     45  39  81 NW6       29.97R
FORT WAYNE     MOSUNNY   47  37  68 NW3       29.98R
6HR MIN TEMP:  42; 6HR MAX TEMP:  49;


$$

INZ028-029-035-036-043>045-051>053-061300-
WEST CENTRAL INDIANA

CITY           SKY/WX    TMP DP  RH WIND       PRES   REMARKS
CRAWFORDSVL +  SUNNY     40  40 100 CALM      30.02R FOG
6HR MIN TEMP:  37; 6HR MAX TEMP:  43;

GREENCASTLE +  SUNNY     45  43  93 CALM      30.02R
LAFAYETTE      MOSUNNY   41  40  96 CALM      30.02R FOG
6HR MIN TEMP:  37; 6HR MAX TEMP:  41;

TERRE HAUTE    SUNNY     46  44  93 CALM      30.03R FOG
6HR MIN TEMP:  42; 6HR MAX TEMP:  47;


$$

INZ030>032-037>040-046>048-054>057-064-065-061300-
CENTRAL INDIANA

CITY           SKY/WX    TMP DP  RH WIND       PRES   REMARKS
COLUMBUS       SUNNY     45  45 100 NW6       30.00R
INDIANAPOLIS   PTSUNNY   47  40  76 NW6       30.00R
6HR MIN TEMP:  43; 6HR MAX TEMP:  48;

-EAGLE CREEK   SUNNY     48  40  73 NW7       30.00R
6HR MIN TEMP:  46; 6HR MAX TEMP:  50;

KOKOMO *+      MOSUNNY   45  39  81 W7        30.00R
6HR MIN TEMP:  39; 6HR MAX TEMP:  46;

SHELBYVILLE    SUNNY     48  41  76 NW6       29.99R
6HR MIN TEMP:  44; 6HR MAX TEMP:  51;


$$

INZ033-034-041-042-049-050-058-059-061300-
EAST CENTRAL INDIANA

CITY           SKY/WX    TMP DP  RH WIND       PRES   REMARKS
MUNCIE         MOSUNNY   47  40  76 NW6       29.98R
6HR MIN TEMP:  42; 6HR MAX TEMP:  48;


$$

INZ060-061-067>069-081>083-085>088-061300-
SOUTHWEST INDIANA

CITY           SKY/WX    TMP DP  RH WIND       PRES   REMARKS
EVANSVILLE     SUNNY     49  45  86 CALM      30.03R
6HR MIN TEMP:  45; 6HR MAX TEMP:  50;

HUNTINGBURG *+ SUNNY     46  43  87 NW3       30.02R
6HR MIN TEMP:  45; 6HR MAX TEMP:  48;


$$

INZ062-063-066-070>080-084-089>092-061300-
SOUTH CENTRAL AND SOUTHEAST INDIANA

CITY           SKY/WX    TMP DP  RH WIND       PRES   REMARKS
BLOOMINGTON    SUNNY     46  41  82 CALM      30.01R
6HR MIN TEMP:  42; 6HR MAX TEMP:  46;

MADISON *+     SUNNY     46  43  87 NW3       30.00R
SEYMOUR +      SUNNY     48  43  81 CALM      30.00R

$$





USA.gov is the U.S. government's official web portal to all federal, state and local government web resources and services.